This is the latest recevied weather packets stored in our database for station/object VK5TRM-14. If no packets are shown the sender has not sent any weather packets the latest 10 day(s).
| Time | Temp. | Humidity | Pressure | Rain* | Wind** | Luminosity | Snow |
|---|---|---|---|---|---|---|---|
| 1777746605 | 15° C | 84% | 1011.1 hPa | 12.19 mm | - | - | - |
| 1777745705 | 15° C | 84% | 1011.1 hPa | 12.19 mm | - | - | - |
| 1777744805 | 15° C | 83% | 1011.2 hPa | 12.19 mm | - | - | - |
| 1777743906 | 15° C | 83% | 1011.2 hPa | 12.19 mm | - | - | - |
| 1777743005 | 15° C | 85% | 1011.3 hPa | 12.19 mm | - | - | - |
| 1777742105 | 15° C | 85% | 1011.3 hPa | 12.19 mm | - | - | - |
| 1777741205 | 15.56° C | 86% | 1011.3 hPa | 12.19 mm | - | - | - |
| 1777740305 | 15.56° C | 86% | 1011.3 hPa | 12.19 mm | - | - | - |
| 1777739406 | 15.56° C | 89% | 1011.3 hPa | 12.19 mm | - | - | - |
| 1777738505 | 15.56° C | 89% | 1011.3 hPa | 12.19 mm | - | - | - |
| 1777737605 | 15.56° C | 92% | 1011.2 hPa | 12.19 mm | - | - | - |
| 1777736705 | 15.56° C | 92% | 1011.2 hPa | 12.19 mm | - | - | - |
| 1777735805 | 15.56° C | 89% | 1011.4 hPa | 12.19 mm | - | - | - |
| 1777734905 | 15.56° C | 89% | 1011.4 hPa | 12.19 mm | - | - | - |
| 1777734005 | 16.11° C | 88% | 1011.2 hPa | 12.19 mm | - | - | - |
| 1777733105 | 16.11° C | 88% | 1011.2 hPa | 12.19 mm | - | - | - |
| 1777732205 | 16.67° C | 90% | 1011.7 hPa | 12.19 mm | - | - | - |
| 1777731306 | 16.67° C | 90% | 1011.7 hPa | 12.19 mm | - | - | - |
| 1777730405 | 17.22° C | 96% | 1011.7 hPa | 12.19 mm | - | - | - |
| 1777729505 | 17.22° C | 96% | 1011.7 hPa | 12.19 mm | - | - | - |
| 1777728606 | 17.22° C | 95% | 1011.7 hPa | 12.19 mm | - | - | - |
| 1777727705 | 17.22° C | 95% | 1011.7 hPa | 12.19 mm | - | - | - |
| 1777726805 | 17.22° C | 95% | 1011.6 hPa | 11.94 mm | - | - | - |
| 1777725905 | 17.22° C | 95% | 1011.6 hPa | 11.94 mm | - | - | - |
| 1777725005 | 17.22° C | 95% | 1011.1 hPa | 9.14 mm | - | - | - |
* Rain since midnight (hover to see other rain measurements)
** Current wind speed in m/s (hover to see current wind gust speed)